Location: Bennemühlen
(52.5740°N, 9.7135°E)
Time: 07:53:15
(UTC+00:00)

SR - Visible Passes

Search period start: 17 February 2026 00:00
Search period end: 27 February 2026 00:00
Orbit: 574 x 847 km, 66.7° (Epoch: 15 February)

Date Brightness Start Highest point End Pass type
(mag) Time Alt. Az. Time Alt. Az. Time Alt. Az.
17 Feb ? 03:51:16 23° SSE 03:53:03 32° ESE 03:57:01 10° NE visible
17 Feb ? 05:30:26 10° WSW 05:34:34 45° NW 05:38:58 10° NNE visible
18 Feb ? 02:58:15 16° ESE 02:58:32 16° ESE 03:01:09 10° ENE visible
18 Feb ? 04:37:19 29° SW 04:39:30 84° NW 04:44:03 10° NE visible
19 Feb ? 03:44:10 45° SE 03:44:38 47° ESE 03:48:58 10° NE visible
19 Feb ? 05:23:14 14° W 05:26:27 34° NW 05:30:42 10° NNE visible
20 Feb ? 02:50:56 21° E 02:50:56 21° E 02:53:30 10° ENE visible
20 Feb ? 04:29:59 41° WSW 04:31:15 60° NW 04:35:48 10° NE visible
21 Feb ? 03:36:40 66° E 03:36:40 66° E 03:40:48 10° NE visible
21 Feb ? 05:15:43 16° W 05:18:24 28° NNW 05:22:24 10° NNE visible
22 Feb ? 02:43:17 24° ENE 02:43:17 24° ENE 02:45:35 10° NE visible
22 Feb ? 04:22:20 40° WNW 04:23:05 44° NW 04:27:31 10° NNE visible
23 Feb ? 03:28:54 56° NNE 03:28:54 56° NNE 03:32:36 10° NE visible
23 Feb ? 05:07:57 15° WNW 05:10:22 23° NNW 05:14:08 10° NNE visible
24 Feb ? 02:35:25 25° ENE 02:35:25 25° ENE 02:37:30 10° NE visible
24 Feb ? 04:14:28 33° NW 04:14:58 34° NW 04:19:14 10° NNE visible
25 Feb ? 01:41:55 11° ENE 01:41:55 11° ENE 01:42:04 10° ENE visible
25 Feb ? 03:20:57 43° N 03:20:57 43° N 03:24:20 10° NE visible
25 Feb ? 05:00:00 14° WNW 05:02:23 20° NNW 05:05:53 10° NNE visible
26 Feb ? 02:27:24 24° NE 02:27:24 24° NE 02:29:20 10° NE visible
26 Feb ? 04:06:26 27° NW 04:06:53 27° NNW 04:10:56 10° NNE visible
